Location: Alafon
(8.4500°N, 4.2333°E)
Time: 01:20:33
(UTC+00:00)

USA 229 DEB - Pass Details

Date: 05 July 2020
Orbit: 983 x 1229 km, 63.4° (Epoch: 24 June)

Event Time Altitude Azimuth Distance (km) Brightness Sun altitude
Rises 20:15:18 0° 336° (NNW) 4,085 7.5 -29.4°
Reaches altitude 10° 20:18:01 10° 337° (NNW) 3,143 6.8 -30.0°
Maximum altitude 20:25:40 89° 64° (ENE) 1,229 3.8 -31.6°
Enters shadow 20:26:09 80° 154° (SSE) 1,244 3.8 -31.7°
